Weather History for KOGB - February, 2013

Change the Weather History Date:

Thursday, February 28, 2013

  Actual Average Record
Temperature  
Mean Temperature 50 °F 52 °F  
Max Temperature 58 °F 64 °F 84 °F (2011)
Min Temperature 42 °F 41 °F 19 °F (2002)
Degree Days  
Heating Degree Days 15 13  
Month to date heating degree days 448 435  
Since 1 July heating degree days 1633 1932  
Cooling Degree Days 0 0  
Month to date cooling degree days 0 2  
Year to date cooling degree days 20 3  
Moisture  
Dew Point 32 °F    
Average Humidity 54    
Maximum Humidity 76    
Minimum Humidity 35    
Precipitation  
Precipitation 0.00 in 0.15 in 1.55 in (1984)
Month to date precipitation 7.32 3.59  
Year to date precipitation 8.16 7.57  
Sea Level Pressure  
Sea Level Pressure 29.85 in    
Wind  
Wind Speed 12 mph (West)    
Max Wind Speed 23 mph    
Max Gust Speed 33 mph    
Visibility 10 miles    
Events      
T = Trace of Precipitation, MM = Missing Value Source: NWS Daily Summary

Daily Weather History Graph

Daily Weather History Graph

Search for Another Location

Airport or City:

Trip Planner

Search our weather history database for the weather conditions in past years. The results will help you decide how hot, cold, wet, or windy it might be!

Date:

Astronomy

Feb. 28, 2013 Rise Set
Actual Time 6:52 AM EST 6:19 PM EST
Civil Twilight 6:27 AM EST 6:44 PM EST
Nautical Twilight 5:58 AM EST 7:13 PM EST
Astronomical Twilight 5:30 AM EST 7:42 PM EST
Moon 9:31 PM EST (2/28) 8:12 AM EST (2/28)
Length of Visible Light 12h 16m
Length of Day
11h 26m
Waning Gibbous, 91% of the Moon is Illuminated
Feb 28
Waning Gibbous
Mar 4
Last Quarter
Mar 11
New
Mar 19
First Quarter
Mar 27
Full

Hourly Weather History & Observations

Time (EST) Temp. Windchill Dew Point Humidity Pressure Visibility Wind Dir Wind Speed Gust Speed Precip Events Conditions
12:53 AM 48.0 °F - 39.9 °F 74% 29.83 in 10.0 mi WSW 9.2 mph - N/A   Clear
1:53 AM 48.0 °F - 39.0 °F 71% 29.82 in 10.0 mi WSW 12.7 mph - N/A   Clear
2:53 AM 46.9 °F - 39.0 °F 74% 29.80 in 10.0 mi WSW 10.4 mph - N/A   Clear
3:53 AM 46.0 °F 41.9 °F 37.9 °F 73% 29.80 in 10.0 mi SW 8.1 mph - N/A   Clear
4:53 AM 44.1 °F 40.1 °F 37.9 °F 79% 29.81 in 10.0 mi WSW 6.9 mph - N/A   Clear
5:53 AM 45.0 °F 40.1 °F 37.0 °F 74% 29.82 in 10.0 mi WSW 9.2 mph - N/A   Clear
6:53 AM 44.1 °F 39.5 °F 37.0 °F 76% 29.84 in 10.0 mi West 8.1 mph - N/A   Clear
7:53 AM 46.0 °F 41.0 °F 37.0 °F 71% 29.86 in 10.0 mi West 10.4 mph - N/A   Clear
9:53 AM 51.1 °F - 28.0 °F 41% 29.87 in 10.0 mi West 18.4 mph 31.1 mph N/A   Clear
10:53 AM 53.1 °F - 28.9 °F 40% 29.86 in 10.0 mi West 17.3 mph 23.0 mph N/A   Clear
11:53 AM 55.0 °F - 28.9 °F 37% 29.85 in 10.0 mi WNW 16.1 mph - N/A   Clear
12:53 PM 55.9 °F - 28.9 °F 36% 29.83 in 10.0 mi West 19.6 mph 33.4 mph N/A   Partly Cloudy
1:53 PM 57.0 °F - 30.0 °F 36% 29.81 in 10.0 mi West 16.1 mph 25.3 mph N/A   Mostly Cloudy
2:53 PM 55.9 °F - 30.0 °F 37% 29.82 in 10.0 mi West 20.7 mph 28.8 mph N/A   Mostly Cloudy
3:53 PM 55.9 °F - 30.9 °F 39% 29.82 in 10.0 mi WNW 16.1 mph 27.6 mph N/A   Partly Cloudy
4:53 PM 55.9 °F - 30.9 °F 39% 29.82 in 10.0 mi WNW 11.5 mph 24.2 mph N/A   Partly Cloudy
5:53 PM 53.1 °F - 30.9 °F 43% 29.85 in 10.0 mi NW 12.7 mph 18.4 mph N/A   Clear
7:53 PM 48.9 °F - 30.0 °F 48% 29.89 in 10.0 mi NW 9.2 mph - N/A   Clear
8:53 PM 46.9 °F - 28.9 °F 50% 29.90 in 10.0 mi NW 6.9 mph - N/A   Clear
9:53 PM 45.0 °F 41.8 °F 28.9 °F 53% 29.91 in 10.0 mi NW 5.8 mph - N/A   Clear
10:53 PM 44.1 °F 39.5 °F 28.0 °F 53% 29.92 in 10.0 mi NW 8.1 mph 17.3 mph N/A   Clear
11:53 PM 42.1 °F 37.1 °F 27.0 °F 55% 29.92 in 10.0 mi WNW 8.1 mph - N/A   Clear